Location: Cronhütte
(48.9135°N, 9.6869°E)
Time: 19:31:45
(UTC+00:00)

Cosmos 1315 Rocket - Pass Details

Date: 23 May 2024
Orbit: 515 x 542 km, 81.2° (Epoch: 23 June)

Event Time Altitude Azimuth Distance (km) Brightness Sun altitude
Exits shadow 01:39:59 22° 234° (SW) 1,196 4.0 -13.6°
Maximum altitude 01:41:58 37° 288° (WNW) 840 3.6 -13.4°
Drops below altitude 10° 01:45:38 10° 357° (N) 1,789 6.2 -13.1°
Sets 01:47:56 0° 6° (N) 2,690 7.5 -12.8°
